Regional Weather Roundup
Issued by NWS

Home | Current Version | Previous Version | Text Only | Print | Product List | Glossary Off
Versions: 1 2 3 4 5 6 7 8 9 10 11 12 13 14 15 16 17 18 19 20 21 22 23 24 25 26 27 28 29 30 31 32 33 34 35 36 37 38 39 40 41 42 43 44 45 46 47 48 49 50

000
ASUS44 KMEG 160800
RWRTN
TENNESSEE HOURLY STATE WEATHER ROUNDUP
NATIONAL WEATHER SERVICE MEMPHIS TN
200 AM CST MON JAN 16 2017

TNZ002-004-019-021-049-052-054-088>092-160900-
WEST TENNESSEE

CITY           SKY/WX    TMP DP  RH WIND       PRES   REMARKS
MEMPHIS INTL   MOCLDY    51  51 100 E6        30.14S
NWS MEMPHIS      N/A     49 N/A N/A MISG        N/A
JACKSON        MOCLDY    50  49  96 CALM      30.18S FOG
DYERSBURG      PTCLDY    46  45  93 SE6       30.17S
UNION CITY     CLOUDY   N/A N/A N/A CALM      30.17F
PARIS          CLOUDY    45  43  93 CALM      30.20S VSB 3/4
$$

TNZ008-025-027-028-033-062-065-066-160900-
NORTH MIDDLE TENNESSEE

CITY           SKY/WX    TMP DP  RH WIND       PRES   REMARKS
NASHVILLE      FOG       50  49  96 NE5       30.24R VSB 1/4
CLARKSVILLE    FOG       45  44  97 E7        30.22F VSB 1
SMYRNA         CLOUDY    46  45  96 CALM      30.24R
CROSSVILLE     MOCLDY    51  50  96 CALM      30.25S FOG
$$

TNZ061-075-076-078-094-096-097-160900-
SOUTH MIDDLE TENNESSEE

CITY           SKY/WX    TMP DP  RH WIND       PRES   REMARKS
TULLAHOMA      CLOUDY    50  48  93 CALM      30.23R VSB 1/2
WINCHESTER     PTCLDY    48  48 100 CALM      30.23R
MCMINNVILLE    CLEAR     52  52 100 CALM      30.23R
COLUMBIA       MOCLDY   N/A N/A N/A CALM      30.20R
SHELBYVILLE    MOCLDY    48  48 100 CALM      30.23R
$$

TNZ017-018-042-046-047-160900-
NORTHEAST TENNESSEE

CITY           SKY/WX    TMP DP  RH WIND       PRES   REMARKS
TRI CITIES     CLOUDY    55  54  96 CALM      30.27S FOG
$$

TNZ012-013-036-069-073-074-160900-
CENTRAL EAST TENNESSEE

CITY           SKY/WX    TMP DP  RH WIND       PRES   REMARKS
KNOXVILLE      FOG       54  53  97 E3        30.24S VSB 1/4
OAK RIDGE      CLOUDY    55  52  89 CALM      30.26S
GATLINBURG     CLOUDY    52  52 100 CALM      30.26R VSB 1/2
$$

TNZ083-085-099-160900-
SOUTHEAST TENNESSEE

CITY           SKY/WX    TMP DP  RH WIND       PRES   REMARKS
CHATTANOOGA    PTCLDY    51  49  92 CALM      30.24R
$$

SKY/WX REPORTED AS FAIR MEANS FEW OR NO CLOUDS BELOW
12 THOUSAND FEET.





USA.gov is the U.S. government's official web portal to all federal, state and local government web resources and services.